Location: Aston
(51.8833°N, 0.1500°W)
Time: 02:45:48
(UTC+00:00)

Daily predictions for brighter satellites

Satellite Brightness Start Highest point End
(mag) Time Altitude Azimuth Time Altitude Azimuth Time Altitude Azimuth
Cosmos 1461 3.0 00:00:53 10° NW 00:04:58 59° SW 00:06:31 35° S
Cosmos 1553 Rocket 4.0 00:03:21 26° S 00:06:52 71° E 00:13:04 10° NNE
Cosmos 1867 3.9 00:05:01 29° S 00:07:27 48° ESE 00:12:42 10° NE
Cosmos 2221 Rocket 3.7 00:06:47 33° S 00:08:39 67° E 00:13:03 10° NNE
Cosmos 1674 Rocket 4.1 00:06:55 29° SSE 00:08:44 47° E 00:12:54 10° NNE
Cosmos 1238 Rocket 2.0 00:08:33 10° N 00:11:31 81° E 00:12:06 54° SSE
Cosmos 1674 2.6 00:10:51 40° S 00:12:05 74° E 00:15:51 10° NNE
ATLAS CENTAUR R/B 2.7 00:08:38 10° WNW 00:12:51 29° WSW 00:13:59 26° SW
SL-19 R/B 3.8 00:17:33 49° SW 00:18:02 57° WSW 00:20:56 10° NNW
Cosmos 468 4.4 00:16:11 10° NNW 00:21:26 82° WSW 00:24:27 26° SSE
ATLAS 5 CENTAUR R/B 3.4 00:05:46 10° NW 00:21:28 69° SW 00:24:40 22° SSE
CZ-4C R/B 3.1 00:14:38 10° NW 00:21:38 61° SW 00:27:52 19° SSE
Cosmos 2322 Rocket 3.6 00:16:54 10° WSW 00:21:59 34° NW 00:27:06 10° NNE
Cosmos 2333 Rocket 2.4 00:19:42 20° SW 00:23:43 69° NW 00:29:25 10° NNE
Cosmos 1378 Rocket 3.7 00:22:19 31° SSE 00:24:17 64° E 00:28:42 10° NNE
Cosmos 2322 3.7 00:20:47 24° SSW 00:24:24 86° WNW 00:30:11 10° NNE
Cosmos 1844 Rocket 4.4 00:20:52 10° WNW 00:24:25 17° W 00:26:32 14° SW
USA 215 3.3 00:20:33 10° ENE 00:27:09 87° NNW 00:33:43 10° WSW
NOSS 0 Rocket 4.4 00:29:23 25° S 00:32:47 50° ESE 00:38:47 10° NE
PSLV R/B 3.6 00:28:27 10° NNE 00:32:50 78° WNW 00:35:01 30° SSW
Meteor 2-10 Rocket 4.2 00:31:15 10° N 00:36:54 56° ENE 00:41:17 16° SSE
Cosmos 2151 Rocket 4.0 00:34:48 10° NNW 00:39:03 48° W 00:40:53 29° SSW
Cosmos 1745 Rocket 4.0 00:34:26 10° NNW 00:40:43 77° W 00:44:34 24° S
Cosmos 839 Rocket 4.1 00:35:51 10° NW 00:42:08 75° SW 00:49:11 11° SSE
Okean 2 Rocket 3.9 00:39:05 10° NNW 00:43:20 40° W 00:45:14 26° SW
Okean 2 3.9 00:42:13 27° SW 00:44:05 48° WNW 00:48:05 10° N
ADEOS Rocket 3.9 00:42:18 21° SW 00:45:09 33° W 00:50:32 10° NNW
USA 308 4.0 00:44:46 25° SSE 00:45:19 26° SE 00:48:49 10° E
Cosmos 2219 Rocket 2.5 00:42:56 18° SW 00:47:00 61° NW 00:52:34 10° NNE
Meteor 2-12 Rocket 4.4 00:42:12 10° N 00:48:19 90° WSW 00:52:26 22° S
Meteor 1-16 Rocket 4.4 00:42:38 10° NNW 00:48:32 64° W 00:52:02 25° S
Cosmos 1707 4.3 00:50:02 18° WSW 00:52:00 27° WNW 00:55:20 10° N
GP-B 3.4 00:51:04 10° N 00:55:30 61° E 00:58:07 23° SSE
CZ-2D R/B 3.5 00:53:46 10° NNE 00:58:30 31° E 01:02:28 13° SSE
Cosmos 1300 2.6 00:55:52 10° NNW 00:59:41 86° W 01:01:27 30° S
Lacrosse 5 3.6 00:58:31 16° SSE 01:00:16 19° SE 01:03:46 10° E
ASTEX 1 4.2 00:57:41 10° N 01:02:16 41° WNW 01:05:07 21° SW
SL-14 R/B 3.2 01:02:27 32° SSW 01:04:12 83° WNW 01:08:05 10° N
USA 267 4.1 01:02:14 22° SSW 01:04:57 29° SW 01:10:33 10° WNW
USA 305 3.4 01:07:08 29° S 01:08:35 40° SE 01:12:31 10° ENE
Cosmos 371 Rocket 3.3 01:06:03 26° SSW 01:08:48 85° ESE 01:13:42 10° NNE
USA 229 DEB 4.2 01:01:56 10° NW 01:08:55 49° WSW 01:15:06 15° S
USA 229 4.2 01:02:02 10° NW 01:09:01 49° WSW 01:15:15 15° S
Cosmos 2150 Rocket 3.9 01:06:08 25° SSW 01:09:14 89° ESE 01:14:25 10° NNE
Cosmos 2237 Rocket 2.3 01:11:28 23° SSW 01:15:03 72° ESE 01:20:46 10° NNE
COSMOS 2428 3.3 01:12:17 16° SW 01:16:43 53° NW 01:22:19 10° NNE
Cosmos 1437 Rocket 3.8 01:14:44 10° NNW 01:18:02 29° W 01:19:16 24° SW
Cosmos 405 Rocket 3.6 01:18:03 22° WSW 01:19:52 37° WNW 01:23:26 10° N
Cosmos 304 Rocket 3.9 01:17:17 24° S 01:20:08 71° ESE 01:24:58 10° NNE
SL-16 R/B 2.9 01:15:37 10° SSE 01:21:44 67° ENE 01:27:57 10° NNW
Okean 1 Rocket 4.0 01:17:59 10° NNW 01:22:01 35° W 01:24:05 23° SW
Lacrosse 5 rocket 3.4 01:21:54 12° SE 01:23:08 13° SE 01:25:04 10° E
Cosmos 1125 Rocket 3.6 01:20:01 22° SW 01:23:23 71° WNW 01:28:37 10° NNE
Cosmos 1953 3.4 01:21:18 10° NNW 01:24:50 30° W 01:26:26 22° SW
Cosmos 2074 Rocket 4.4 01:20:52 10° N 01:27:08 63° ENE 01:33:22 10° SSE
SME Rocket 3.3 01:24:34 21° S 01:27:15 71° WSW 01:32:38 10° NNW
Cosmos 2360 Rocket 4.2 01:23:15 10° W 01:27:38 22° NW 01:32:02 10° NNE
Resurs 1-4 Rocket 2.6 01:22:45 10° NNE 01:27:55 52° E 01:31:56 16° S
Cosmos 2297 4.0 01:25:52 10° NNW 01:31:39 71° NE 01:37:23 10° SE
Cosmos 1943 Rocket 2.2 01:25:59 10° NNW 01:31:43 85° ENE 01:37:24 10° SSE
USA 290 4.3 01:32:42 12° W 01:34:47 21° NW 01:37:20 10° N
Cosmos 1709 Rocket 4.3 01:29:12 10° NNW 01:35:06 51° W 01:39:17 19° SSW
MOZ.5/SAFIR/RUBIN 5/SL-8 4.1 01:34:00 22° SSW 01:36:51 50° W 01:41:30 10° NNW
Cosmos 1626 4.2 01:36:40 11° WSW 01:38:46 17° WNW 01:41:14 10° NNW
Cosmos 2315 Rocket 4.2 01:35:34 19° SSW 01:40:13 69° WNW 01:46:38 10° N
Cosmos 2184 Rocket 4.2 01:35:45 10° N 01:42:05 76° E 01:48:16 10° SSE
Cosmos 2278 Rocket 3.2 01:37:47 10° NW 01:42:32 28° WSW 01:45:23 19° SSW
EO 1 Delta rocket 4.2 01:38:03 10° N 01:42:36 57° WNW 01:46:02 19° SSW
ADEOS II 3.1 01:38:49 10° NNE 01:43:46 39° E 01:48:40 10° SSE
IDEFIX/ARIANE 42P 3.9 01:39:48 10° NNE 01:44:37 34° E 01:49:23 10° SSE
USA 306 2.9 01:47:34 19° SW 01:50:28 65° SSE 01:54:37 10° ENE
Cosmos 1867 4.5 01:45:53 10° WSW 01:51:08 46° NW 01:56:26 10° NE
Cosmos 2084 Rocket 3.6 01:49:15 22° SSW 01:51:26 48° SE 01:55:06 10° NE
Thor Agena Rocket 3.8 01:46:56 10° N 01:52:10 63° WNW 01:56:09 17° SW
USA 307 2.9 01:51:04 19° SW 01:53:57 62° SSE 01:58:06 10° ENE
NPP 3.8 01:50:34 10° NNE 01:55:59 71° ESE 02:00:36 14° S
ERBS 2.1 01:54:54 24° SW 01:56:30 63° SSE 01:59:33 10° ENE
Cosmos 2369 Rocket 2.8 01:51:23 10° NNW 01:56:56 59° NE 02:02:28 10° SE
Gblst 52 Del rocket 4.2 01:51:50 10° W 01:57:46 88° S 02:03:17 10° E
USA-17 4.5 01:55:05 10° NW 01:58:17 83° NE 02:02:15 10° SE
Cosmos 1455 Rocket 3.8 01:56:12 10° NNW 02:00:22 39° W 02:03:14 18° SSW
Cosmos 614 Rocket 4.1 01:55:30 10° NNW 02:00:43 84° ENE 02:05:57 10° SSE
Cosmos 2228 4.2 01:56:44 10° N 02:00:57 43° ENE 02:05:05 10° SE
CZ-4 R/B 3.8 01:56:19 10° NNE 02:01:00 88° WNW 02:04:41 16° SSW
EO 1 Del DPAF 4.4 01:58:49 10° NNE 02:02:03 33° E 02:05:16 10° SSE
SL-16 R/B 2.5 01:58:00 15° S 02:02:34 60° ESE 02:08:10 10° NE
Cosmos 2251 Rocket 4.2 01:57:27 10° NNW 02:02:40 58° ENE 02:07:53 10° SE
Cosmos 1656 Rocket 4.4 02:01:00 10° NNW 02:06:21 56° NE 02:11:40 10° SE
Cosmos 1980 4.2 02:02:27 14° SW 02:07:15 53° NW 02:12:48 10° NNE
Meteor 1-28 Rocket 3.3 02:03:58 10° SSE 02:07:42 79° ENE 02:11:27 10° NNW
Cosmos 2333 Rocket 4.3 02:04:52 10° W 02:09:05 21° NNW 02:13:20 10° NNE
CZ-4C R/B 4.4 02:04:39 10° WNW 02:09:20 18° WSW 02:12:59 13° SW
USA 215 3.9 02:03:34 10° ENE 02:09:58 59° N 02:16:23 10° W
COSMOS 2455 3.8 02:04:48 11° S 02:10:04 40° ESE 02:15:39 10° NE
NOSS 3 (A) 3.1 02:10:22 42° WSW 02:10:46 72° NW 02:12:35 10° NE
Cosmos 332 Rocket 4.2 02:07:03 16° SW 02:10:47 55° WNW 02:15:31 10° NNE
Cosmos 1536 Rocket 3.9 02:08:03 11° S 02:12:11 62° E 02:16:32 10° NNE
Cosmos 1975 Rocket 3.9 02:16:47 15° SW 02:20:04 37° WNW 02:24:16 10° N
Nadezhda 1 Rocket 4.2 02:15:23 10° S 02:21:44 77° E 02:28:01 10° NNE
MSX 4.5 02:16:09 10° NNE 02:21:50 54° E 02:27:27 10° S
Meteor 1-24 Rocket 3.8 02:17:03 14° SSW 02:21:51 64° WNW 02:27:16 10° N
UNK 4.0 02:19:09 11° S 02:23:27 50° W 02:27:58 10° NNW
Cosmos 1455 2.5 02:20:40 10° NNW 02:24:13 46° W 02:27:22 13° SSW
USA 308 2.8 02:20:30 11° WSW 02:24:33 83° SSE 02:28:45 10° ENE
Cosmos 1025 Rocket 3.8 02:23:55 14° SW 02:27:15 38° WNW 02:31:18 10° N
MOS 1 Rocket 3.3 02:23:22 10° S 02:27:30 51° W 02:31:44 10° NNW
YAOGAN 11 4.5 02:23:44 10° S 02:27:57 48° W 02:32:20 10° NNW
Cosmos 1271 Rocket 2.6 02:24:16 10° NNW 02:28:05 75° W 02:31:56 10° S
Cosmos 2219 Rocket 4.3 02:28:15 10° WNW 02:32:09 19° NNW 02:36:04 10° NNE
Cosmos 1606 Rocket 4.2 02:27:46 10° N 02:32:11 59° ENE 02:36:30 10° SSE
CZ-2D R/B 2.6 02:33:35 10° N 02:38:47 50° WNW 02:43:47 11° SW
Lacrosse 5 2.0 02:37:42 11° SW 02:42:32 70° SE 02:47:37 10° ENE
Helios 1B rocket 4.1 02:39:19 10° NNE 02:42:57 30° E 02:46:32 10° SSE
Meteor 2-5 Rocket 4.5 02:38:06 11° SW 02:43:16 41° WNW 02:48:37 10° N
Cosmos 2341 Rocket 4.3 02:38:27 10° N 02:44:53 79° E 02:51:17 10° SSE
USA 305 3.0 02:43:49 10° WSW 02:48:01 78° NNW 02:52:12 10° ENE
Cosmos 2154 Rocket 4.3 02:42:07 10° NNW 02:48:16 54° W 02:54:23 10° SSW
Meteor 2-1 Rocket 4.4 02:43:38 10° NNW 02:49:28 85° ENE 02:55:09 10° SSE
Cosmos 407 Rocket 3.7 02:45:17 10° NNW 02:50:40 80° ENE 02:55:58 10° SSE
SL-8 Rocket 4.3 02:45:15 10° N 02:51:37 74° ENE 02:57:56 10° SSE
SAR-Lupe-2 4.4 02:51:35 10° N 02:54:57 38° WNW 02:58:16 10° SW
AQUA 4.3 02:51:13 10° N 02:55:48 47° WNW 03:00:21 10° SW
Cosmos 1943 4.1 02:52:14 10° S 02:57:39 47° ESE 03:03:05 10° NE
Cosmos 1328 4.5 02:53:58 10° S 02:57:50 54° E 03:01:45 10° NNE
Helios 1A 3.7 02:54:19 10° SSW 02:58:12 36° W 03:02:08 10° NNW
Genesis I 3.3 02:54:09 10° NW 02:58:15 85° SW 03:02:17 10° SE
Cosmos 2237 Rocket 3.6 02:54:42 10° WSW 02:59:39 30° NW 03:04:39 10° NNE
Lacrosse 5 rocket 1.4 02:57:33 10° SW 03:01:25 64° SE 03:05:33 10° ENE
Cosmos 1140 Rocket 3.5 02:56:20 10° NNW 03:01:38 83° WSW 03:06:52 10° SSE
ATLAS 2AS CENTAUR R/B 4.4 02:57:10 10° NW 03:04:03 38° NNE 03:10:30 10° E
SL-16 R/B 3.6 03:00:38 10° SSW 03:05:50 28° W 03:11:06 10° NW
Resurs 1-4 Rocket 3.3 03:02:59 10° N 03:07:31 30° WNW 03:12:04 10° WSW
NOSS 3-4 (A) 4.4 03:02:15 10° NW 03:08:54 65° NE 03:16:29 10° ESE
NOSS 3-4 (C) 4.4 03:02:19 10° NW 03:08:58 65° NE 03:16:31 10° ESE
Lacrosse 4 Rocket 4.2 03:08:38 10° SE 03:10:03 11° ESE 03:11:28 10° E
